Torna al catalogo

STARLINK-3797

AttivoComunicazioniVLEO
NORAD 52337·PAYLOAD·🇺🇸 United States

Lanciato Apr 29, 2022 da Cape Canaveral Space Force Station

Loading…

Prossimi Passaggi (prossime 24 ore)

TLE

AggiornatoSource: CelesTrak SupGP

Epoca: Sep 14, 2026, 13:11 UTC

1 52337C 22045G   26257.54979167  .00728200  00000+0  23096-1 0  2579
2 52337  53.1610  79.3207 0001304  90.6597 146.5897 15.31780535    19

Traccia STARLINK-3797 in tempo reale con AllMySat

Download on the App Store